�������r�C�����j�^�v���󋵏��
Date,Time,5�C6���@���p�r�C��,����,����(m/s)
2023/05/28,00:00,3.8,��,6.7
2023/05/28,00:10,3.8,��,6.8
2023/05/28,00:20,3.6,��쐼,7.0
2023/05/28,00:30,3.7,��쐼,6.4
2023/05/28,00:40,3.6,��쐼,6.4
2023/05/28,00:50,3.6,��쐼,7.1
2023/05/28,01:00,3.6,��쐼,4.5
2023/05/28,01:10,3.5,��쐼,3.8
2023/05/28,01:20,3.7,��쐼,4.7
2023/05/28,01:30,3.6,��쐼,5.1
2023/05/28,01:40,3.7,��쐼,4.6
2023/05/28,01:50,3.7,��,4.8
2023/05/28,02:00,3.7,��,5.3
2023/05/28,02:10,3.7,��,5.4
2023/05/28,02:20,3.7,��,5.2
2023/05/28,02:30,3.5,��,5.4
2023/05/28,02:40,3.6,��,6.4
2023/05/28,02:50,3.7,��,6.0
2023/05/28,03:00,3.7,��,6.4
2023/05/28,03:10,3.7,��,7.2
2023/05/28,03:20,3.7,��,6.5
2023/05/28,03:30,3.6,��,6.4
2023/05/28,03:40,3.6,��,7.3
2023/05/28,03:50,3.8,��,6.8
2023/05/28,04:00,3.6,��,6.4
2023/05/28,04:10,3.7,��,6.4
2023/05/28,04:20,3.6,��,6.8
2023/05/28,04:30,3.8,��,7.1
2023/05/28,04:40,3.8,��,6.4
2023/05/28,04:50,3.8,��,7.5
2023/05/28,05:00,3.6,��,7.4
2023/05/28,05:10,3.8,��,7.9
2023/05/28,05:20,3.6,��,9.1
2023/05/28,05:30,3.7,��,8.7
2023/05/28,05:40,3.5,��,8.4
2023/05/28,05:50,3.7,��,7.4
2023/05/28,06:00,3.6,��,6.5
2023/05/28,06:10,3.5,��,6.3
2023/05/28,06:20,3.6,��,8.0
2023/05/28,06:30,3.6,��,7.2
2023/05/28,06:40,3.6,��,6.0
2023/05/28,06:50,3.5,��,6.2
2023/05/28,07:00,3.8,��,6.5
2023/05/28,07:10,3.6,��,4.7
2023/05/28,07:20,3.7,��,4.8
2023/05/28,07:30,3.7,��,4.8
2023/05/28,07:40,3.8,��,4.7
2023/05/28,07:50,3.9,��,4.4
2023/05/28,08:00,3.6,��,3.8
2023/05/28,08:10,3.6,��,5.4
2023/05/28,08:20,3.5,��,5.0
2023/05/28,08:30,3.6,��,5.1
2023/05/28,08:40,3.7,��쓌,6.6
2023/05/28,08:50,3.6,��,5.7
2023/05/28,09:00,3.6,��쓌,6.5
2023/05/28,09:10,3.8,��,8.9
2023/05/28,09:20,3.6,��,9.8
2023/05/28,09:30,3.8,��,9.4
2023/05/28,09:40,3.8,��,9.3
2023/05/28,09:50,3.7,��,9.1
2023/05/28,10:00,3.7,��,7.2
2023/05/28,10:10,3.6,��,6.8
2023/05/28,10:20,3.6,��,7.3
2023/05/28,10:30,3.6,��,6.1
2023/05/28,10:40,3.7,��,5.5
2023/05/28,10:50,3.5,��,8.4
2023/05/28,11:00,3.7,��,9.2
2023/05/28,11:10,3.5,��,9.9
2023/05/28,11:20,3.5,��,7.5
2023/05/28,11:30,3.6,��,6.4
2023/05/28,11:40,3.6,��쓌,9.5
2023/05/28,11:50,3.7,��,9.4
2023/05/28,12:00,3.7,��,8.9
2023/05/28,12:10,3.5,��,6.3
2023/05/28,12:20,3.9,��,6.9
2023/05/28,12:30,3.8,��,7.9
2023/05/28,12:40,3.7,��,7.6
2023/05/28,12:50,3.6,��,6.8
2023/05/28,13:00,3.7,��,7.3
2023/05/28,13:10,3.8,��,7.0
2023/05/28,13:20,3.6,��,6.6
2023/05/28,13:30,3.6,��쓌,6.2
2023/05/28,13:40,3.6,��쓌,7.9
2023/05/28,13:50,3.7,��,9.8
2023/05/28,14:00,3.6,��,7.5
2023/05/28,14:10,3.6,��,6.2
2023/05/28,14:20,3.4,��,7.3
2023/05/28,14:30,3.6,��,7.3
2023/05/28,14:40,3.7,��,7.5
2023/05/28,14:50,3.8,��,8.2
2023/05/28,15:00,3.7,��,7.8
2023/05/28,15:10,3.6,��,7.7
2023/05/28,15:20,3.6,��,6.7
2023/05/28,15:30,3.7,��,8.5
2023/05/28,15:40,3.7,��,8.1
2023/05/28,15:50,3.4,��,8.9
2023/05/28,16:00,3.8,��,8.5
2023/05/28,16:10,3.7,��,7.1
2023/05/28,16:20,3.6,��,6.7
2023/05/28,16:30,3.5,��,7.1
2023/05/28,16:40,3.7,��,7.9
2023/05/28,16:50,3.7,��,7.9
2023/05/28,17:00,3.6,��,8.0
2023/05/28,17:10,3.8,��,6.5
2023/05/28,17:20,3.8,��,6.7
2023/05/28,17:30,3.6,��,6.6
2023/05/28,17:40,3.8,��쐼,6.4
2023/05/28,17:50,3.7,��,5.9
2023/05/28,18:00,3.7,��쐼,5.2
2023/05/28,18:10,3.6,��,4.5
2023/05/28,18:20,3.6,��,4.7
2023/05/28,18:30,3.7,��,5.7
2023/05/28,18:40,3.7,��,4.9
2023/05/28,18:50,3.6,��,5.4
2023/05/28,19:00,3.6,��쐼,4.3
2023/05/28,19:10,3.6,��,4.7
2023/05/28,19:20,3.6,��,5.1
2023/05/28,19:30,3.6,��,5.2
2023/05/28,19:40,3.8,��,5.2
2023/05/28,19:50,3.7,��쐼,5.4
2023/05/28,20:00,3.5,��쐼,5.1
2023/05/28,20:10,3.8,��쐼,4.7
2023/05/28,20:20,3.8,��쐼,4.0
2023/05/28,20:30,3.6,��쐼,3.2
2023/05/28,20:40,3.6,�쐼,2.6
2023/05/28,20:50,3.8,���쐼,2.3
2023/05/28,21:00,3.5,�쐼,2.0
2023/05/28,21:10,3.7,�쐼,2.3
2023/05/28,21:20,3.8,�쐼,2.3
2023/05/28,21:30,3.5,��쐼,3.7
2023/05/28,21:40,3.6,��쐼,5.2
2023/05/28,21:50,3.6,�쐼,4.2
2023/05/28,22:00,3.7,��쐼,3.7
2023/05/28,22:10,3.6,��쐼,4.0
2023/05/28,22:20,3.7,��쐼,3.9
2023/05/28,22:30,3.8,�쐼,3.5
2023/05/28,22:40,3.5,��쐼,3.1
2023/05/28,22:50,3.7,��,3.1
2023/05/28,23:00,3.7,��쐼,4.5
2023/05/28,23:10,3.5,��쐼,4.7
2023/05/28,23:20,3.7,��쐼,4.2
2023/05/28,23:30,3.6,��쐼,3.7
2023/05/28,23:40,3.5,��쐼,3.8
2023/05/28,23:50,3.7,��쐼,2.8
